Location: Rathdrum
(47.8130°N, 116.8960°W)
Time: 15:38:50
(UTC-08:00)

Amateur Radio Satellites - All Passes

Search period start: 22 November 2014 15:08
Search period end: 23 November 2014 15:08
Location: Rathdrum, 47.8130°N, 116.8960°W

Satellite Date Start Highest point End Downlink Frequencies (MHz)
Time Altitude Azimuth
ITUPSAT 1 22 Nov 15:14:10 15:16:46 15° 304° (NW) 15:19:22 437.325
STARS 22 Nov 15:15:59 15:20:16 54° 289° (WNW) 15:24:33 437.465
YUBILEINY 22 Nov 15:23:16 15:30:22 29° 280° (W) 15:37:26 435.215
SWISSCUBE 22 Nov 15:28:00 15:29:03 11° 307° (NW) 15:30:06 437.505
JAS-2 22 Nov 15:31:59 15:39:22 57° 67° (ENE) 15:47:02 435.910
RS-15 22 Nov 15:37:00 15:46:44 39° 109° (ESE) 15:56:27 29.354- 29.394
CUTE-I 22 Nov 15:41:40 15:45:23 19° 57° (ENE) 15:49:06 437.470
KKS-1 22 Nov 15:49:17 15:52:34 21° 298° (WNW) 15:55:51 437.445
O/OREOS (USA 219) 22 Nov 16:05:13 16:09:41 76° 247° (WSW) 16:14:09 437.305
AO-7 22 Nov 16:25:09 16:32:14 31° 266° (W) 16:39:24 29.400- 29.500
MOZHAYETS 4 22 Nov 16:25:34 16:29:58 39° 97° (E) 16:34:20
PHONESAT 2.4 22 Nov 16:25:45 16:28:02 16° 159° (SSE) 16:30:20 2401.200-2431.200
MaSat-1 22 Nov 16:34:05 16:36:46 31° 304° (NW) 16:39:15 437.345
Cubesat XI-IV 22 Nov 16:37:12 16:42:23 51° 68° (ENE) 16:47:34 437.490
VERMONT LUNAR 22 Nov 16:51:30 16:54:18 21° 167° (SSE) 16:57:07 437.305
HO-68 22 Nov 17:12:41 17:15:37 13° 41° (NE) 17:18:33 435.675
JAS-2 22 Nov 17:17:41 17:24:37 38° 267° (W) 17:31:52 435.910
GONETS M04 22 Nov 17:19:14 17:25:24 20° 54° (NE) 17:31:30
CUTE-I 22 Nov 17:19:30 17:24:52 77° 256° (WSW) 17:30:16 437.470
PRISM 22 Nov 17:23:44 17:27:30 30° 96° (E) 17:31:13 437.425
RS-15 22 Nov 17:47:27 17:58:22 71° 313° (NW) 18:09:25 29.354- 29.394
CUBESAT XI-V 22 Nov 17:56:30 18:00:30 27° 94° (E) 18:04:28 437.345
PHONESAT 2.4 22 Nov 18:03:02 18:06:10 26° 176° (S) 18:09:19 2401.200-2431.200
MOZHAYETS 4 22 Nov 18:03:07 18:07:02 27° 295° (WNW) 18:10:57
Cubesat XI-IV 22 Nov 18:18:18 18:22:44 26° 267° (W) 18:27:11 437.490
CANX-2 22 Nov 18:23:07 18:25:08 13° 59° (ENE) 18:27:08 2200.000
VERMONT LUNAR 22 Nov 18:29:11 18:32:13 25° 184° (S) 18:35:16 437.305
STRAND 1 22 Nov 18:35:14 18:40:18 57° 101° (E) 18:45:18 437.568
GOMX 1 22 Nov 18:37:13 18:39:41 14° 60° (ENE) 18:42:05 467.674
COMPASS 1 22 Nov 18:37:37 18:39:28 13° 59° (ENE) 18:41:19 437.405
SHINDAISAT 22 Nov 18:42:12 18:43:56 39° 50° (NE) 18:45:38 437.305
BRITE-PL 22 Nov 18:45:31 18:49:22 23° 64° (ENE) 18:53:01 437.365/2234.400
HO-68 22 Nov 18:54:51 19:01:40 49° 63° (ENE) 19:08:31 435.675
CUTE 1.7 & AOD 2 22 Nov 18:56:35 19:00:00 25° 65° (ENE) 19:03:27 437.475
PRISM 22 Nov 18:59:17 19:03:02 30° 294° (WNW) 19:06:45 437.425
CUTE-I 22 Nov 19:04:11 19:05:51 11° 275° (W) 19:07:30 437.470
UKube-1 22 Nov 19:08:33 19:10:40 13° 57° (ENE) 19:12:47 .
GONETS M04 22 Nov 19:15:03 19:23:57 77° 79° (E) 19:32:45
CINEMA 3 22 Nov 19:15:24 19:17:48 15° 60° (ENE) 19:20:09 145.822/145.860
Oscar 11 22 Nov 19:21:44 19:24:37 18° 61° (ENE) 19:27:30 145.826/435.025
SEEDS 22 Nov 19:33:34 19:37:37 49° 71° (ENE) 19:41:41 437.485
CUBESAT XI-V 22 Nov 19:33:42 19:38:03 38° 292° (WNW) 19:42:21 437.345
PCSat 22 Nov 19:36:06 19:40:49 31° 111° (ESE) 19:45:33 145.827
DX 1 22 Nov 19:38:39 19:42:14 25° 64° (ENE) 19:45:50 434.975-435.025
PHONESAT 2.4 22 Nov 19:41:31 19:44:24 21° 193° (SSW) 19:47:16 2401.200-2431.200
BEESAT 2 22 Nov 19:43:07 19:44:01 11° 108° (ESE) 19:44:55 435.950
DOVE 4 22 Nov 19:47:31 19:51:56 44° 70° (ENE) 19:56:08 437.250
AIST 1 22 Nov 19:51:14 19:55:38 79° 98° (E) 20:00:04
VELOX 1 22 Nov 19:54:05 19:56:15 14° 57° (ENE) 19:58:26 145.980
CANX-2 22 Nov 19:56:17 20:00:30 78° 257° (WSW) 20:04:45 2200.000
AAUSAT CUBESAT 2 22 Nov 19:57:43 20:01:51 67° 74° (ENE) 20:06:01 437.432
RS-15 22 Nov 20:03:10 20:12:58 36° 344° (NNW) 20:22:59 29.354- 29.394
ZACube-1 22 Nov 20:04:20 20:07:28 21° 64° (ENE) 20:10:35 437.345
VERMONT LUNAR 22 Nov 20:07:56 20:10:03 15° 201° (SSW) 20:12:10 437.305
COMPASS 1 22 Nov 20:10:26 20:14:36 80° 257° (WSW) 20:18:49 437.405
GOMX 1 22 Nov 20:12:26 20:17:18 83° 257° (WSW) 20:21:52 467.674
STRAND 1 22 Nov 20:15:09 20:19:07 23° 300° (WNW) 20:23:04 437.568
HUMSAT D 22 Nov 20:15:17 20:17:58 17° 62° (ENE) 20:20:40 437.325/437.525
AISAT 22 Nov 20:16:36 20:19:59 21° 62° (ENE) 20:23:22 437.250
DELFI C3 22 Nov 20:21:20 20:25:17 53° 72° (ENE) 20:29:18 145.870
BRITE-PL 22 Nov 20:22:40 20:27:39 52° 260° (W) 20:32:16 437.365/2234.400
50 SAT 22 Nov 20:28:01 20:30:51 19° 63° (ENE) 20:33:41 437.505
CUTE 1.7 & AOD 2 22 Nov 20:31:54 20:35:48 36° 263° (W) 20:39:44 437.475
FUNcube-1 22 Nov 20:39:22 20:43:22 43° 70° (ENE) 20:47:21 145.935
UKube-1 22 Nov 20:41:52 20:46:14 83° 256° (WSW) 20:50:37 .
HO-68 22 Nov 20:42:51 20:49:30 40° 263° (W) 20:56:13 435.675
CUBEBUG 1 22 Nov 20:43:57 20:46:35 16° 59° (ENE) 20:49:12 437.445
CUBEBUG 2 22 Nov 20:48:20 20:52:37 73° 74° (ENE) 20:56:49 437.445
CINEMA 3 22 Nov 20:50:07 20:54:33 72° 258° (WSW) 20:58:50 145.822/145.860
UWE-3 22 Nov 20:56:08 21:00:23 76° 75° (ENE) 21:04:35 435.000/436.395/437.385
Oscar 11 22 Nov 20:56:09 21:00:23 57° 259° (W) 21:04:39 145.826/435.025
BEESAT 3 22 Nov 21:05:00 21:09:06 71° 125° (SE) 21:13:17 437.485
SEEDS 22 Nov 21:10:54 21:13:45 18° 269° (W) 21:16:37 437.485
GONETS M04 22 Nov 21:12:55 21:19:53 27° 281° (W) 21:26:48
ESTCUBE 1 22 Nov 21:14:09 21:18:06 30° 65° (ENE) 21:22:04 437.505/2401.250
DX 1 22 Nov 21:14:12 21:18:18 39° 262° (W) 21:22:27 434.975-435.025
BEESAT 2 22 Nov 21:17:27 21:21:35 84° 127° (SE) 21:25:49 435.950
PCSat 22 Nov 21:18:47 21:24:02 49° 311° (NW) 21:29:20 145.827
DOVE 4 22 Nov 21:26:16 21:29:54 22° 267° (W) 21:33:23 437.250
VELOX 1 22 Nov 21:27:43 21:32:13 86° 256° (WSW) 21:36:44 145.980
POPSAT HIP 1 22 Nov 21:30:15 21:31:25 11° 87° (E) 21:32:34 437.405
AIST 1 22 Nov 21:31:54 21:33:56 13° 297° (WNW) 21:35:58
AIST 2 22 Nov 21:35:59 21:40:12 68° 124° (SE) 21:44:29 435.215
AAUSAT CUBESAT 2 22 Nov 21:36:04 21:38:01 13° 272° (W) 21:39:58 437.432
ZACube-1 22 Nov 21:39:33 21:43:37 44° 261° (W) 21:47:38 437.345
HUMSAT D 22 Nov 21:49:21 21:53:26 55° 260° (W) 21:57:30 437.325/437.525
AISAT 22 Nov 21:51:58 21:56:19 49° 260° (W) 22:00:42 437.250
GOMX 1 22 Nov 21:55:21 21:56:03 10° 273° (W) 21:56:45 467.674
TIGRISAT 22 Nov 21:58:01 22:01:54 31° 96° (E) 22:05:51 435.000
DELFI C3 22 Nov 21:58:28 22:00:57 16° 270° (W) 22:03:27 145.870
POLYITAN 1 22 Nov 21:59:46 22:03:08 23° 93° (E) 22:06:30 437.675
50 SAT 22 Nov 22:01:59 22:05:53 46° 261° (W) 22:09:48 437.505
QB50P2 22 Nov 22:03:10 22:06:40 25° 94° (E) 22:10:09 145.880/145.840
UNISAT 6 22 Nov 22:09:29 22:13:38 40° 98° (E) 22:17:52 437.425
DUCHIFAT 1 22 Nov 22:11:26 22:15:08 29° 95° (E) 22:18:49 145.980
FUNcube-1 22 Nov 22:16:51 22:19:57 20° 268° (W) 22:23:03 145.935
CUBEBUG 1 22 Nov 22:17:59 22:22:26 72° 257° (WSW) 22:26:54 437.445
RS-15 22 Nov 22:19:07 22:29:07 37° 19° (NNE) 22:39:24 29.354- 29.394
SPROUT 22 Nov 22:20:53 22:24:42 31° 67° (ENE) 22:28:31 437.525
TISAT 1 22 Nov 22:21:58 22:25:54 36° 68° (ENE) 22:29:50 437.305
CUBEBUG 2 22 Nov 22:28:04 22:29:50 12° 272° (W) 22:31:35 437.445
NANOSAT C BR1 22 Nov 22:30:01 22:34:05 45° 99° (E) 22:38:08 145.865
UWE-3 22 Nov 22:36:00 22:37:28 12° 272° (W) 22:38:57 435.000/436.395/437.385
ANTELSAT 22 Nov 22:37:40 22:42:05 78° 103° (ESE) 22:46:34 437.575/2403.000
QB50P1 22 Nov 22:39:21 22:43:32 57° 101° (E) 22:47:41 145.935-145.965
AUBIESAT-1 22 Nov 22:42:12 22:45:31 24° 56° (ENE) 22:49:05 437.475
BEESAT 3 22 Nov 22:44:34 22:47:47 21° 325° (NW) 22:51:03 437.485
M-CUBED/EXP-1 PRIME 22 Nov 22:44:44 22:48:12 27° 58° (ENE) 22:51:55 437.505
ESTCUBE 1 22 Nov 22:50:46 22:54:55 34° 264° (W) 22:59:06 437.505/2401.250
BEESAT 2 22 Nov 22:57:23 23:00:27 19° 327° (NNW) 23:03:32 435.950
POPSAT HIP 1 22 Nov 23:03:40 23:07:55 81° 285° (WNW) 23:12:07 437.405
PCSat 22 Nov 23:05:37 23:08:48 15° 334° (NNW) 23:11:59 145.827
BUGSAT 1 22 Nov 23:08:33 23:12:42 85° 285° (WNW) 23:16:46 437.445
ITUPSAT 1 22 Nov 23:08:41 23:12:20 22° 61° (ENE) 23:16:00 437.325
VELOX 1 22 Nov 23:08:54 23:09:30 10° 273° (W) 23:10:06 145.980
AIST 2 22 Nov 23:15:51 23:19:16 23° 325° (NW) 23:22:43 435.215
SWISSCUBE 22 Nov 23:20:26 23:24:33 29° 64° (ENE) 23:28:42 437.505
CUSAT 1 22 Nov 23:33:33 23:37:31 60° 78° (ENE) 23:42:52 437.405
TIGRISAT 22 Nov 23:34:49 23:38:39 31° 293° (WNW) 23:42:33 435.000
POLYITAN 1 22 Nov 23:35:18 23:39:15 38° 291° (WNW) 23:43:10 437.675
QB50P2 22 Nov 23:38:49 23:42:42 36° 292° (WNW) 23:46:33 145.880/145.840
KKS-1 22 Nov 23:41:28 23:42:04 10° 54° (NE) 23:42:39 437.445
DANDE 22 Nov 23:44:11 23:48:00 63° 78° (ENE) 23:53:11 436.750
UNISAT 6 22 Nov 23:46:44 23:50:16 24° 296° (WNW) 23:53:52 437.425
DUCHIFAT 1 22 Nov 23:47:19 23:51:01 30° 293° (WNW) 23:54:41 145.980
BEESAT 22 Nov 23:51:40 23:56:17 50° 70° (ENE) 00:00:57 436.000
SPROUT 22 Nov 23:56:59 00:00:47 29° 265° (W) 00:04:36 437.525
TISAT 1 22 Nov 23:58:19 00:01:50 25° 266° (W) 00:05:23 437.305
NANOSAT C BR1 23 Nov 00:06:34 00:09:43 21° 297° (WNW) 00:12:51 145.865
Oscar 19 23 Nov 00:13:31 00:16:52 17° 89° (E) 00:20:12 437.125/150
ANTELSAT 23 Nov 00:16:01 00:18:21 14° 301° (WNW) 00:20:43 437.575/2403.000
QB50P1 23 Nov 00:16:16 00:19:02 17° 299° (WNW) 00:21:48 145.935-145.965
AUBIESAT-1 23 Nov 00:16:28 00:20:17 42° 257° (WSW) 00:24:28 437.475
M-CUBED/EXP-1 PRIME 23 Nov 00:19:24 00:23:07 36° 258° (WSW) 00:27:11 437.505
RS-15 23 Nov 00:32:23 00:43:34 75° 48° (NE) 00:55:13 29.354- 29.394
ISS 23 Nov 00:32:53 00:35:50 31° 144° (SE) 00:38:49 145.825
MaSat-1 23 Nov 00:35:22 00:37:41 69° 60° (ENE) 00:40:00 437.345
YUBILEINY 23 Nov 00:38:56 00:43:43 16° 72° (ENE) 00:48:30 435.215
STARS 23 Nov 00:41:01 00:44:36 25° 64° (ENE) 00:48:12 437.465
POPSAT HIP 1 23 Nov 00:42:12 00:43:06 11° 304° (NW) 00:44:00 437.405
ITUPSAT 1 23 Nov 00:45:09 00:49:52 55° 259° (W) 00:54:38 437.325
BUGSAT 1 23 Nov 00:46:36 00:47:30 11° 304° (WNW) 00:48:23 437.445
SWISSCUBE 23 Nov 00:57:49 01:02:18 39° 262° (W) 01:06:50 437.505
ITAMSAT 1 23 Nov 00:58:56 01:02:22 18° 90° (E) 01:05:45 435.822/435.867
Gurwin Techsat 1B 23 Nov 01:11:48 01:14:29 14° 87° (E) 01:17:10 435.225
KKS-1 23 Nov 01:13:27 01:17:54 71° 73° (ENE) 01:22:21 437.445
CUSAT 1 23 Nov 01:17:58 01:20:34 16° 268° (W) 01:23:34 437.405
DANDE 23 Nov 01:29:16 01:31:24 14° 268° (W) 01:33:49 436.750
BEESAT 23 Nov 01:30:44 01:34:25 22° 268° (W) 01:38:08 436.000
Oscar 19 23 Nov 01:51:36 01:56:45 72° 288° (WNW) 02:01:53 437.125/150
ISS 23 Nov 02:09:05 02:12:22 62° 342° (NNW) 02:15:39 145.825
STARS 23 Nov 02:16:46 02:20:55 39° 262° (W) 02:25:05 437.465
HORYU 2 23 Nov 02:17:18 02:20:49 22° 93° (E) 02:24:19 437.375
AO-7 23 Nov 02:29:55 02:35:00 17° 86° (E) 02:40:04 29.400- 29.500
YUBILEINY 23 Nov 02:30:08 02:38:52 72° 94° (E) 02:47:36 435.215
PCSat 23 Nov 02:37:11 02:40:37 17° 28° (NNE) 02:44:03 145.827
ITAMSAT 1 23 Nov 02:37:13 02:42:24 71° 288° (WNW) 02:47:32 435.822/435.867
RS-15 23 Nov 02:45:19 02:55:11 38° 252° (WSW) 03:05:26 29.354- 29.394
Gurwin Techsat 1B 23 Nov 02:49:51 02:55:12 89° 285° (WNW) 03:00:31 435.225
KKS-1 23 Nov 02:52:43 02:55:03 14° 271° (W) 02:57:23 437.445
SO-50 23 Nov 03:18:19 03:21:12 17° 110° (ESE) 03:24:07 436.795
MOZHAYETS 4 23 Nov 03:30:53 03:35:21 55° 71° (ENE) 03:39:53
Oscar 19 23 Nov 03:33:02 03:35:12 13° 307° (NW) 03:37:23 437.125/150
BEESAT 3 23 Nov 03:44:16 03:47:41 23° 36° (NE) 03:51:05 437.485
ISS 23 Nov 03:46:12 03:49:21 40° 2° (N) 03:52:30 145.825
HORYU 2 23 Nov 03:53:26 03:57:42 44° 291° (WNW) 04:01:58 437.375
BEESAT 2 23 Nov 03:56:55 04:00:31 26° 38° (NE) 04:04:06 435.950
AIST 2 23 Nov 04:16:52 04:20:25 24° 36° (NE) 04:23:56 435.215
STRAND 1 23 Nov 04:17:30 04:21:04 19° 58° (ENE) 04:24:38 437.568
PRISM 23 Nov 04:17:57 04:21:47 36° 68° (ENE) 04:25:41 437.425
ITAMSAT 1 23 Nov 04:18:49 04:20:59 13° 308° (NW) 04:23:08 435.822/435.867
PCSat 23 Nov 04:19:54 04:25:15 56° 51° (NE) 04:30:35 145.827
AO-7 23 Nov 04:20:48 04:29:12 75° 107° (ESE) 04:37:34 29.400- 29.500
JAS-2 23 Nov 04:23:52 04:30:34 37° 92° (E) 04:36:35 435.910
YUBILEINY 23 Nov 04:28:57 04:36:29 31° 297° (WNW) 04:44:03 435.215
Gurwin Techsat 1B 23 Nov 04:31:17 04:34:26 16° 305° (NW) 04:37:36 435.225
Cubesat XI-IV 23 Nov 04:52:25 04:55:25 15° 88° (E) 04:58:25 437.490
SO-50 23 Nov 04:56:37 05:01:10 74° 310° (NW) 05:05:53 436.795
CUBESAT XI-V 23 Nov 05:03:11 05:07:35 40° 68° (ENE) 05:11:59 437.345
MOZHAYETS 4 23 Nov 05:09:42 05:12:56 19° 270° (W) 05:16:13
BEESAT 3 23 Nov 05:22:07 05:26:17 62° 237° (WSW) 05:30:23 437.485
ISS 23 Nov 05:22:57 05:26:16 81° 22° (NNE) 05:29:34 145.825
CUTE-I 23 Nov 05:33:30 05:38:18 33° 96° (E) 05:43:02 437.470
BEESAT 2 23 Nov 05:34:58 05:39:04 51° 238° (WSW) 05:43:07 435.950
PRISM 23 Nov 05:53:58 05:57:26 25° 266° (W) 06:00:57 437.425
STRAND 1 23 Nov 05:54:35 05:59:43 72° 257° (WSW) 06:04:53 437.568
AIST 2 23 Nov 05:55:09 05:59:26 63° 237° (WSW) 06:03:39 435.215
AIST 1 23 Nov 05:55:28 05:59:18 28° 71° (ENE) 06:03:06
PCSat 23 Nov 06:03:51 06:08:21 27° 250° (WSW) 06:12:51 145.827
JAS-2 23 Nov 06:08:43 06:15:51 51° 295° (WNW) 06:22:13 435.910
AO-7 23 Nov 06:14:16 06:21:21 32° 308° (NW) 06:28:26 29.400- 29.500
O/OREOS (USA 219) 23 Nov 06:20:37 06:25:04 65° 112° (ESE) 06:29:31 437.305
GONETS M04 23 Nov 06:27:50 06:33:10 18° 73° (ENE) 06:38:30
Cubesat XI-IV 23 Nov 06:30:50 06:36:13 84° 286° (WNW) 06:41:32 437.490
SO-50 23 Nov 06:39:12 06:42:32 19° 332° (NNW) 06:45:56 436.795
CUBESAT XI-V 23 Nov 06:41:08 06:45:08 27° 266° (W) 06:49:10 437.345
ISS 23 Nov 07:00:03 07:02:37 21° 220° (SW) 07:05:12 145.825
CUTE-I 23 Nov 07:13:30 07:18:26 40° 294° (WNW) 07:23:20 437.470
AIST 1 23 Nov 07:33:06 07:36:58 31° 270° (W) 07:40:48
CANX-2 23 Nov 07:39:50 07:42:17 15° 89° (E) 07:44:44 2200.000
COMPASS 1 23 Nov 07:52:41 07:54:52 14° 89° (E) 07:57:02 437.405
JAS-2 23 Nov 07:55:49 07:59:05 14° 317° (NW) 08:02:15 435.910
O/OREOS (USA 219) 23 Nov 08:01:41 08:04:55 19° 312° (NW) 08:08:09 437.305
HO-68 23 Nov 08:06:12 08:12:42 35° 96° (E) 08:19:08 435.675
ANTELSAT 23 Nov 08:06:28 08:08:33 14° 58° (ENE) 08:10:38 437.575/2403.000
AO-7 23 Nov 08:10:20 08:11:32 10° 333° (NNW) 08:12:44 29.400- 29.500
GOMX 1 23 Nov 08:11:45 08:14:45 19° 92° (E) 08:17:46 467.674
Cubesat XI-IV 23 Nov 08:12:31 08:15:31 15° 306° (NW) 08:18:30 437.490
CUTE 1.7 & AOD 2 23 Nov 08:13:55 08:17:42 29° 95° (E) 08:21:28 437.475
GONETS M04 23 Nov 08:19:41 08:28:27 78° 95° (E) 08:37:19
SO-50 23 Nov 08:24:03 08:24:59 11° 357° (N) 08:25:56 436.795
BRITE-PL 23 Nov 08:24:18 08:28:07 34° 96° (E) 08:31:54 437.365/2234.400
POPSAT HIP 1 23 Nov 08:26:25 08:28:52 15° 60° (ENE) 08:31:19 437.405
UKube-1 23 Nov 08:28:14 08:30:15 13° 89° (E) 08:32:16 .
BUGSAT 1 23 Nov 08:29:07 08:31:17 14° 59° (ENE) 08:33:26 437.445
CUBEBUG 2 23 Nov 08:38:23 08:39:41 11° 88° (E) 08:40:59 437.445
Oscar 11 23 Nov 08:40:50 08:44:07 20° 92° (E) 08:47:22 145.826/435.025
CINEMA 3 23 Nov 08:42:24 08:45:26 19° 92° (E) 08:48:30 145.822/145.860
UWE-3 23 Nov 08:44:54 08:46:20 12° 88° (E) 08:47:47 435.000/436.395/437.385
SEEDS 23 Nov 08:50:36 08:54:50 61° 101° (E) 08:59:04 437.485
POLYITAN 1 23 Nov 08:56:37 09:00:17 28° 66° (ENE) 09:03:56 437.675
DX 1 23 Nov 08:59:25 09:03:08 27° 95° (E) 09:06:50 434.975-435.025
QB50P2 23 Nov 08:59:48 09:03:32 30° 67° (ENE) 09:07:16 145.880/145.840
TIGRISAT 23 Nov 09:00:30 09:04:30 40° 69° (ENE) 09:08:30 435.000
DUCHIFAT 1 23 Nov 09:07:40 09:11:33 35° 68° (ENE) 09:15:26 145.980
UNISAT 6 23 Nov 09:12:14 09:16:24 54° 72° (ENE) 09:20:35 437.425
AAUSAT CUBESAT 2 23 Nov 09:13:37 09:17:52 82° 103° (ESE) 09:22:06 437.432
CANX-2 23 Nov 09:14:24 09:18:39 62° 287° (WNW) 09:22:53 2200.000
VELOX 1 23 Nov 09:16:51 09:19:15 14° 89° (E) 09:21:39 145.980
DOVE 4 23 Nov 09:20:43 09:24:52 74° 102° (ESE) 09:29:05 437.250
ZACube-1 23 Nov 09:25:08 09:28:40 26° 94° (E) 09:32:14 437.345
NANOSAT C BR1 23 Nov 09:26:14 09:30:24 54° 72° (ENE) 09:34:34 145.865
COMPASS 1 23 Nov 09:26:50 09:31:04 66° 286° (WNW) 09:35:16 437.405
HUMSAT D 23 Nov 09:31:24 09:34:22 19° 92° (E) 09:37:20 437.325/437.525
DELFI C3 23 Nov 09:34:03 09:38:10 60° 101° (E) 09:42:15 145.870
QB50P1 23 Nov 09:35:37 09:39:52 68° 73° (ENE) 09:44:06 145.935-145.965
AISAT 23 Nov 09:40:16 09:43:55 25° 94° (E) 09:47:32 437.250
50 SAT 23 Nov 09:40:19 09:43:15 19° 92° (E) 09:46:10 437.505
ANTELSAT 23 Nov 09:40:31 09:44:48 78° 257° (WSW) 09:49:06 437.575/2403.000
GOMX 1 23 Nov 09:49:13 09:53:09 42° 290° (WNW) 09:57:06 467.674
CUTE 1.7 & AOD 2 23 Nov 09:49:51 09:53:37 31° 293° (WNW) 09:57:23 437.475
HO-68 23 Nov 09:53:43 10:00:41 54° 295° (WNW) 10:07:35 435.675
POPSAT HIP 1 23 Nov 10:00:02 10:04:17 69° 258° (WSW) 10:08:33 437.405
FUNcube-1 23 Nov 10:00:38 10:04:48 58° 101° (E) 10:09:00 145.935
BUGSAT 1 23 Nov 10:01:57 10:06:14 77° 257° (WSW) 10:10:30 437.445
UKube-1 23 Nov 10:02:36 10:06:57 73° 287° (WNW) 10:11:16 .
BRITE-PL 23 Nov 10:03:10 10:06:33 24° 295° (WNW) 10:09:54 437.365/2234.400
SO-50 23 Nov 10:04:49 10:07:37 15° 22° (NNE) 10:10:26 436.795
CUBEBUG 1 23 Nov 10:04:58 10:07:50 17° 90° (E) 10:10:40 437.445
CUBEBUG 2 23 Nov 10:12:44 10:16:56 79° 285° (WNW) 10:21:13 437.445
Oscar 11 23 Nov 10:16:21 10:20:31 45° 290° (WNW) 10:24:39 145.826/435.025
CINEMA 3 23 Nov 10:18:55 10:22:54 44° 289° (WNW) 10:26:56 145.822/145.860
GONETS M04 23 Nov 10:18:56 10:26:16 29° 299° (WNW) 10:33:42
UWE-3 23 Nov 10:19:14 10:23:26 77° 285° (WNW) 10:27:42 435.000/436.395/437.385
SEEDS 23 Nov 10:27:34 10:30:14 17° 299° (WNW) 10:32:55 437.485
POLYITAN 1 23 Nov 10:32:20 10:36:10 32° 264° (W) 10:40:01 437.675
DX 1 23 Nov 10:35:29 10:39:27 34° 293° (WNW) 10:43:22 434.975-435.025
QB50P2 23 Nov 10:35:41 10:39:26 30° 264° (W) 10:43:13 145.880/145.840
TIGRISAT 23 Nov 10:38:08 10:41:27 22° 267° (W) 10:44:45 435.000
ESTCUBE 1 23 Nov 10:39:57 10:44:14 39° 97° (E) 10:48:28 437.505/2401.250
YUBILEINY 23 Nov 10:43:13 10:44:32 10° 42° (NE) 10:45:52 435.215
DUCHIFAT 1 23 Nov 10:43:58 10:47:31 25° 266° (W) 10:51:04 145.980
UNISAT 6 23 Nov 10:50:50 10:53:34 17° 269° (W) 10:56:19 437.425
AAUSAT CUBESAT 2 23 Nov 10:51:03 10:52:58 13° 301° (WNW) 10:54:52 437.432
VELOX 1 23 Nov 10:51:55 10:56:21 68° 287° (WNW) 11:00:43 145.980
DOVE 4 23 Nov 11:00:13 11:02:09 13° 301° (WNW) 11:04:04 437.250
ZACube-1 23 Nov 11:01:19 11:05:07 34° 292° (WNW) 11:08:57 437.345
NANOSAT C BR1 23 Nov 11:03:52 11:06:38 17° 269° (W) 11:09:24 145.865
HUMSAT D 23 Nov 11:06:28 11:10:26 45° 289° (WNW) 11:14:25 437.325/437.525
DELFI C3 23 Nov 11:10:30 11:13:03 16° 299° (WNW) 11:15:35 145.870
QB50P1 23 Nov 11:14:06 11:16:14 14° 271° (W) 11:18:22 145.935-145.965
50 SAT 23 Nov 11:14:56 11:18:47 43° 290° (WNW) 11:22:38 437.505
AISAT 23 Nov 11:16:34 11:20:42 39° 292° (WNW) 11:24:48 437.250
Oscar 19 23 Nov 11:33:22 11:37:58 35° 65° (ENE) 11:42:35 437.125/150
FUNcube-1 23 Nov 11:38:06 11:40:46 17° 299° (WNW) 11:43:27 145.935
TISAT 1 23 Nov 11:39:21 11:43:22 40° 98° (E) 11:47:20 437.305
SPROUT 23 Nov 11:40:02 11:44:03 37° 97° (E) 11:48:00 437.525
CUBEBUG 1 23 Nov 11:40:17 11:44:35 56° 289° (WNW) 11:48:50 437.445
UKube-1 23 Nov 11:41:50 11:42:20 10° 306° (NW) 11:42:49 .
HO-68 23 Nov 11:43:22 11:46:53 14° 317° (NW) 11:50:23 435.675
SO-50 23 Nov 11:44:41 11:49:21 45° 44° (NE) 11:54:04 436.795
AO-7 23 Nov 11:46:40 11:49:04 12° 29° (NNE) 11:51:29 29.400- 29.500
CUBEBUG 2 23 Nov 11:52:46 11:52:57 10° 303° (WNW) 11:53:09 437.445
AUBIESAT-1 23 Nov 11:57:00 11:59:27 14° 93° (E) 12:01:53 437.475
M-CUBED/EXP-1 PRIME 23 Nov 11:59:43 12:02:43 16° 94° (E) 12:05:42 437.505
ESTCUBE 1 23 Nov 12:17:09 12:20:58 27° 296° (WNW) 12:24:45 437.505/2401.250
ITAMSAT 1 23 Nov 12:19:48 12:24:35 38° 66° (ENE) 12:29:23 435.822/435.867
Gurwin Techsat 1B 23 Nov 12:35:30 12:40:08 32° 64° (ENE) 12:44:47 435.225
YUBILEINY 23 Nov 12:36:11 12:44:25 43° 69° (ENE) 12:52:33 435.215
ITUPSAT 1 23 Nov 12:42:44 12:46:59 30° 95° (E) 12:51:11 437.325
CUSAT 1 23 Nov 12:51:42 12:54:20 43° 98° (E) 12:56:51 437.405
SWISSCUBE 23 Nov 12:54:38 12:59:12 42° 98° (E) 13:03:44 437.505
KKS-1 23 Nov 13:04:08 13:05:06 11° 87° (E) 13:06:05 437.445
DANDE 23 Nov 13:04:57 13:07:45 56° 99° (E) 13:10:19 436.750
Oscar 19 23 Nov 13:12:38 13:17:17 35° 264° (W) 13:21:59 437.125/150
TISAT 1 23 Nov 13:15:42 13:19:00 23° 296° (WNW) 13:22:17 437.305
SPROUT 23 Nov 13:16:29 13:19:59 25° 295° (WNW) 13:23:29 437.525
HORYU 2 23 Nov 13:19:14 13:23:08 31° 66° (ENE) 13:27:04 437.375
SO-50 23 Nov 13:25:29 13:29:49 33° 243° (WSW) 13:34:09 436.795
BEESAT 23 Nov 13:26:13 13:31:03 77° 104° (ESE) 13:35:51 436.000
AUBIESAT-1 23 Nov 13:30:06 13:35:03 89° 289° (WNW) 13:39:57 437.475
AO-7 23 Nov 13:32:09 13:39:27 36° 54° (NE) 13:46:46 29.400- 29.500
M-CUBED/EXP-1 PRIME 23 Nov 13:33:20 13:38:16 79° 291° (WNW) 13:43:11 437.505
ITAMSAT 1 23 Nov 13:59:25 14:04:07 33° 264° (W) 14:08:50 435.822/435.867
STARS 23 Nov 14:03:31 14:07:22 29° 96° (E) 14:11:12 437.465
Gurwin Techsat 1B 23 Nov 14:14:57 14:19:58 42° 262° (W) 14:25:02 435.225
ITUPSAT 1 23 Nov 14:20:30 14:24:56 37° 294° (WNW) 14:29:19 437.325
SWISSCUBE 23 Nov 14:32:51 14:36:54 27° 297° (WNW) 14:40:55 437.505
YUBILEINY 23 Nov 14:33:07 14:41:24 50° 271° (W) 14:49:37 435.215
KKS-1 23 Nov 14:37:57 14:42:25 89° 284° (WNW) 14:46:52 437.445
JAS-2 23 Nov 14:38:43 14:45:05 29° 56° (ENE) 14:51:33 435.910
O/OREOS (USA 219) 23 Nov 14:48:12 14:52:10 30° 54° (NE) 14:56:07 437.305
HORYU 2 23 Nov 14:55:53 14:59:48 31° 264° (W) 15:03:46 437.375
